IRIDIUM 160

Last updated on Fri Sep 11 2026 00:03:06 GMT+0000 (Coordinated Universal Time)

1 43569U 18061A 26253.45701601 .00000084 00000+0 23029-4 0 9996 2 43569 86.3999 21.1326 0002140 94.6951 265.4489 14.34217145425594
UTC large
Height (km)
Speed (km/s)
/
Latitude / Longitude
Inclination (degrees)
Orbital Period (minutes)
Azimuth
Elevation
Range (km)
Doppler Factor

Next 0 passes for location: London (51.5072 / 0.1276)

No passes found over London.
IRIDIUM 160